Temperature
12 12 12 12 12 12 11 11 11 11 11 11 11 12 12 11 11 11 11 11 11 11 10 10 10 10 10 10 10 10 10 10 10 10 10 10 11 11 11 11 11 11 11
12 12 12 12 11 11 11 11 11 11 11 11 11 11 11 11 11 11 11 10 10 10 9 9 9 9 9 9 9 9 9 10 10 10 10 10 10 10 10 11 11 11 11
12 12 12 11 11 11 11 11 11 11 11 11 11 11 11 11 10 10 10 10 9 9 9 9 9 9 9 9 9 9 9 9 9 10 10 10 10 10 10 10 10 10 10
12 12 12 11 11 11 11 11 11 11 11 11 11 10 10 10 10 9 9 9 8 8 8 8 8 9 9 9 9 9 9 9 9 9 9 9 9 9 9 9 9 9 9
12 12 12 12 11 11 11 11 11 11 10 10 10 10 9 10 9 8 8 8 8 8 8 8 8 8 8 8 8 8 8 8 8 8 8 8 8 8 8 8 8 8 8
12 12 12 11 11 11 11 11 10 10 9 9 9 9 9 9 8 8 7 7 7 7 7 7 7 7 7 7 7 7 7 7 7 6 6 6 6 6 6 5 6 6 6
12 11 11 11 11 11 11 10 9 9 8 8 8 8 8 8 8 7 7 7 7 7 7 6 6 6 6 6 6 6 6 6 5 4 3 3 3 3 3 4 4 4 4
11 11 11 11 11 10 10 9 8 8 7 6 6 6 6 6 6 6 6 6 5 5 5 5 5 5 5 5 5 5 5 4 3 2 1 1 1 1 2 2 2 3 3
11 11 11 10 10 10 9 8 7 6 6 5 4 3 3 2 3 4 4 4 4 4 4 4 4 4 4 3 3 3 3 2 1 -0 -1 -0 -0 0 1 1 1 2 2
10 10 10 10 9 9 8 7 6 5 5 4 4 3 2 1 -0 0 2 3 3 3 3 3 3 3 3 2 1 1 0 -0 -2 -2 -2 -1 -1 -1 -0 0 1 1 1
10 10 9 9 8 8 7 6 5 5 4 3 3 2 2 1 -1 -2 -2 -0 1 2 2 2 2 2 1 1 -0 -1 -2 -3 -3 -3 -3 -2 -2 -1 -1 -1 -0 0 0
9 9 8 8 7 7 6 5 4 4 3 3 2 2 1 -0 -1 -3 -4 -4 -4 -2 -1 0 0 0 -0 -1 -2 -2 -3 -4 -4 -4 -4 -3 -3 -2 -2 -2 -1 -1 -1
9 8 8 7 6 6 5 4 4 3 3 2 2 1 0 -1 -2 -3 -4 -4 -5 -4 -3 -4 -4 -3 -3 -3 -3 -4 -4 -5 -5 -5 -5 -4 -4 -4 -3 -3 -3 -2 -2
8 7 7 6 5 4 4 3 3 3 2 2 1 0 -0 -1 -3 -3 -4 -6 -6 -6 -6 -5 -5 -5 -6 -7 -7 -6 -6 -6 -6 -6 -6 -5 -5 -5 -5 -4 -4 -4 -3
7 7 6 5 4 4 3 3 2 2 2 1 1 -0 -1 -2 -3 -4 -5 -6 -7 -7 -6 -7 -7 -7 -7 -8 -8 -8 -8 -7 -7 -7 -6 -6 -6 -6 -5 -5 -5 -5 -5
6 6 5 4 3 3 2 2 2 1 1 1 0 -1 -2 -3 -4 -5 -6 -6 -7 -8 -8 -7 -7 -7 -8 -8 -8 -8 -8 -8 -8 -7 -7 -7 -7 -6 -6 -6 -6 -5 -5
6 5 4 3 3 2 2 2 1 1 1 0 -1 -2 -3 -4 -5 -5 -6 -7 -7 -8 -9 -8 -8 -8 -8 -8 -8 -8 -8 -8 -8 -8 -8 -7 -7 -7 -7 -7 -6 -6 -6
5 4 3 3 2 2 1 1 1 0 -0 -1 -2 -3 -4 -5 -6 -6 -7 -7 -8 -8 -9 -9 -9 -8 -8 -8 -8 -8 -8 -8 -9 -9 -8 -8 -8 -8 -7 -7 -7 -7 -6
4 3 2 2 2 1 1 1 0 -0 -1 -2 -3 -4 -5 -6 -6 -7 -8 -8 -8 -9 -9 -9 -9 -9 -9 -8 -8 -9 -9 -9 -9 -9 -9 -9 -9 -8 -8 -8 -7 -7 -7
3 2 2 1 1 1 0 -0 -1 -1 -2 -3 -4 -5 -6 -7 -7 -8 -8 -8 -9 -9 -9 -9 -9 -9 -9 -9 -9 -9 -9 -10 -10 -10 -10 -9 -9 -9 -9 -9 -9 -8 -8
2 2 1 1 1 0 -0 -1 -2 -3 -4 -5 -6 -6 -7 -7 -8 -9 -9 -9 -9 -9 -9 -9 -8 -9 -9 -9 -10 -10 -10 -10 -10 -10 -10 -10 -10 -10 -10 -9 -9 -9 -9
1 1 1 0 -0 -0 -1 -2 -3 -4 -5 -6 -7 -7 -7 -8 -8 -9 -9 -9 -9 -8 -8 -9 -9 -9 -10 -10 -10 -10 -10 -10 -10 -10 -10 -10 -10 -10 -10 -10 -10 -10 -9
1 0 0 -0 -1 -1 -2 -2 -3 -5 -6 -7 -7 -8 -8 -8 -9 -9 -9 -9 -9 -9 -9 -9 -10 -10 -10 -10 -10 -10 -10 -10 -11 -11 -11 -11 -10 -10 -10 -10 -10 -10 -9
0 0 -0 -1 -1 -2 -3 -3 -4 -6 -6 -7 -8 -8 -8 -9 -9 -9 -9 -9 -9 -9 -10 -10 -10 -10 -10 -10 -10 -11 -11 -11 -11 -11 -11 -11 -11 -11 -10 -10 -9 -9 -9
-0 -1 -1 -2 -2 -3 -3 -4 -6 -7 -7 -8 -8 -9 -9 -10 -10 -9 -9 -9 -10 -9 -10 -10 -10 -10 -10 -10 -10 -11 -11 -12 -12 -11 -10 -11 -11 -11 -11 -10 -9 -9 -9
-1 -1 -2 -2 -3 -3 -4 -5 -7 -8 -8 -9 -9 -9 -10 -10 -10 -9 -9 -10 -10 -10 -10 -10 -10 -9 -9 -9 -9 -10 -11 -12 -12 -12 -10 -11 -11 -11 -11 -9 -8 -8 -8
Wind_Speed
3 3 3 4 5 6 5 4 5 6 6 7 7 7 6 7 8 8 9 13 16 17 16 16 17 17 17 17 16 16 16 16 16 16 15 15 14 14 14 14 14 15 15
6 4 4 4 6 7 7 6 6 5 4 4 5 5 5 7 7 7 9 12 16 18 18 17 17 17 17 16 16 16 16 16 16 16 15 15 15 15 15 15 15 16 16
9 7 5 5 5 8 8 7 6 6 5 5 6 5 4 6 6 6 9 11 13 16 17 18 18 18 17 17 17 16 16 16 17 17 16 16 16 16 16 17 17 17 18
12 9 6 5 7 8 6 5 5 5 6 6 6 5 4 4 4 5 7 9 10 12 15 18 19 19 18 18 18 18 18 18 18 18 18 18 18 18 18 18 19 19 20
13 11 7 6 9 7 5 5 6 5 5 7 7 5 4 4 2 3 4 6 7 10 12 15 19 19 18 18 19 19 19 19 19 19 19 19 20 20 20 20 20 21 21
14 12 8 8 8 6 6 5 6 6 5 6 6 7 4 3 2 2 3 3 4 8 13 14 16 17 17 18 20 21 21 21 21 20 20 21 21 21 21 22 22 22 23
14 12 7 6 7 7 7 6 4 6 6 6 5 6 5 3 3 1 2 1 2 8 14 15 17 15 13 19 20 21 22 22 21 21 22 22 22 23 24 24 24 24 24
13 12 8 7 6 6 8 8 6 3 5 6 4 4 6 6 5 4 4 3 4 7 9 16 16 14 15 15 17 21 21 21 22 22 23 24 24 25 26 26 26 26 26
14 13 11 8 6 7 6 6 6 5 4 4 5 4 3 4 5 5 5 4 5 5 6 10 12 15 18 16 16 17 20 22 22 24 25 26 26 27 27 27 28 28 28
13 13 12 10 6 6 6 6 5 4 4 3 3 2 2 3 4 6 5 4 5 8 8 9 10 15 17 16 16 20 22 22 24 26 28 28 29 29 29 29 29 29 29
10 12 12 9 6 5 6 6 5 4 3 2 1 2 2 2 3 4 7 6 7 6 6 9 8 9 14 14 14 17 22 25 27 29 29 30 30 30 31 31 31 31 31
6 8 10 8 7 5 5 4 4 4 2 1 0 1 2 2 3 4 6 12 12 7 9 9 8 6 10 12 15 22 26 28 28 29 30 31 32 32 32 32 32 32 32
5 6 6 5 5 5 5 4 3 3 1 1 2 2 2 3 3 4 7 12 13 8 5 5 6 6 12 12 15 26 27 28 29 31 33 34 34 33 33 33 34 34 34
6 5 6 6 6 5 4 3 2 2 1 2 4 4 3 5 4 4 5 9 14 7 5 7 5 6 7 11 20 27 21 29 32 34 35 35 35 34 34 34 35 35 35
6 6 6 5 4 4 3 2 2 3 3 3 4 5 5 5 5 6 5 5 7 14 18 6 4 4 7 13 19 19 18 28 33 35 35 35 35 35 35 35 36 36 36
7 7 6 5 4 3 3 2 2 3 4 4 4 6 6 6 6 6 6 7 7 12 17 9 11 10 10 13 22 21 20 31 32 33 34 34 35 36 37 37 37 37 36
7 6 5 4 3 3 3 3 4 4 5 6 6 6 8 8 6 6 6 7 8 10 17 18 13 11 11 12 14 14 18 16 19 30 33 35 37 37 37 37 36 36 36
6 5 4 4 3 3 3 4 5 6 6 7 8 7 8 8 8 7 7 9 9 10 14 20 18 14 14 13 14 13 14 15 11 27 34 35 36 36 35 35 35 35 35
6 5 4 3 3 4 4 5 5 7 7 7 7 7 8 9 9 9 9 10 10 11 11 16 19 16 14 13 13 14 13 12 16 22 28 30 32 34 35 35 36 36 36
6 4 3 3 3 4 5 6 6 7 6 6 6 7 8 9 11 11 11 10 10 11 12 14 16 15 14 12 11 14 16 11 13 15 21 24 28 33 34 35 35 35 35
5 3 3 3 4 4 5 7 6 6 6 6 7 8 9 14 17 15 14 12 12 13 14 14 16 16 15 14 15 14 18 17 14 12 13 14 15 15 17 26 30 32 34
3 3 3 4 5 5 11 15 12 6 5 7 9 9 10 12 17 22 26 25 23 19 17 15 15 16 18 16 16 17 18 19 18 8 10 16 13 16 15 13 26 33 34
3 3 4 5 6 8 13 15 16 9 6 8 9 10 12 13 18 13 20 24 21 23 23 17 17 17 18 18 19 20 18 19 20 16 16 19 14 16 15 18 31 34 35
2 3 4 5 6 8 14 16 18 9 7 9 10 10 12 12 14 18 16 15 12 12 18 15 13 15 16 15 16 18 18 19 18 14 13 18 17 17 18 16 28 33 34
2 3 4 6 6 9 14 17 18 7 7 9 10 10 12 11 22 27 18 15 14 13 19 22 24 24 28 27 22 15 15 15 17 16 11 11 15 17 18 17 20 28 30
3 4 5 6 7 8 13 18 19 7 8 9 8 8 16 20 25 27 16 12 15 16 16 16 17 19 17 18 22 14 13 14 16 12 6 7 13 13 11 9 9 12 17
Wind_Direction
146 124 98 80 68 67 63 54 51 47 38 30 26 25 23 15 14 24 35 47 51 47 44 37 29 22 17 13 10 10 9 5 2 359 354 349 344 340 335 330 322 312 300
141 125 100 79 66 66 65 62 57 47 33 18 14 16 20 14 20 40 53 55 55 49 44 35 25 16 9 3 0 359 359 357 352 347 342 337 333 329 325 319 315 312 310
129 115 100 81 67 71 70 61 55 46 30 14 3 2 17 15 28 50 63 62 59 48 39 30 20 11 4 357 352 348 346 344 341 336 332 327 323 318 314 309 306 303 301
119 108 99 86 76 71 65 61 39 37 22 7 347 341 4 3 22 57 62 67 66 53 36 27 18 6 358 351 346 340 335 332 330 326 322 318 314 310 306 302 299 295 293
109 104 96 88 81 69 51 56 47 39 21 357 335 330 353 348 2 59 57 64 65 53 36 23 11 360 352 346 341 335 329 325 322 319 316 313 310 306 303 300 296 293 290
104 100 91 83 78 69 52 48 54 42 28 350 332 328 332 339 356 57 42 52 52 39 29 16 2 348 343 339 335 328 324 320 316 313 311 309 307 304 301 298 295 292 289
101 98 95 81 73 73 61 46 49 37 20 1 1 339 336 352 354 10 15 357 24 22 18 2 345 330 325 327 326 321 320 315 312 310 307 306 304 302 299 296 293 290 287
99 96 92 87 78 78 62 48 47 47 22 25 30 4 347 338 343 346 339 350 11 11 2 341 323 313 312 309 309 315 314 311 309 307 305 304 301 298 295 292 289 287 284
94 95 91 87 78 77 73 60 53 63 31 14 41 56 13 312 311 311 319 339 353 351 331 314 307 307 305 302 301 305 308 308 305 304 304 301 299 295 293 290 288 286 283
92 92 89 85 80 76 72 62 62 63 65 29 4 29 235 239 286 308 300 307 323 316 301 307 303 296 294 293 296 304 305 302 303 304 302 300 297 295 292 290 288 285 283
85 87 86 83 78 75 73 65 60 58 71 78 7 321 312 290 247 269 293 303 304 282 288 291 289 286 286 287 288 295 302 304 303 301 300 298 297 295 292 290 288 286 284
82 80 83 81 79 75 70 64 61 56 59 56 315 257 249 273 286 277 288 306 306 296 285 280 276 274 286 292 297 308 307 304 302 301 299 297 295 294 292 291 289 287 285
92 83 84 80 75 73 72 62 51 29 15 339 292 266 247 243 245 262 290 306 306 298 270 255 253 272 292 300 307 307 304 304 303 301 299 297 295 294 293 291 289 287 285
108 103 93 83 76 68 61 48 29 341 330 303 286 273 259 255 249 256 274 304 313 303 258 263 261 254 274 291 296 300 299 300 300 299 297 295 294 293 292 290 288 287 285
108 98 90 83 68 56 40 18 344 321 314 290 279 271 259 258 255 255 257 266 290 307 311 283 267 261 273 282 288 292 286 293 296 295 295 294 294 292 290 289 287 285 283
99 97 87 77 60 39 11 351 322 314 315 299 279 274 270 265 262 259 256 258 259 280 294 292 297 292 284 293 296 295 289 293 295 294 292 291 291 291 290 288 286 284 282
100 95 89 75 52 23 352 341 323 313 310 301 297 290 281 278 273 266 261 262 264 268 286 297 297 296 288 286 291 283 282 279 281 287 290 291 291 290 289 287 286 285 283
96 94 86 69 36 3 340 331 317 314 302 298 297 296 291 294 282 276 271 269 270 267 279 293 300 302 295 291 290 286 295 292 284 289 291 291 291 291 290 289 287 285 283
94 84 75 53 12 342 327 314 301 297 294 292 295 296 293 291 288 283 277 277 276 282 281 290 296 298 297 296 296 296 291 286 288 291 292 292 291 290 289 288 287 286 285
94 78 59 29 353 326 311 300 296 294 293 295 295 290 288 287 285 283 287 279 287 292 290 290 293 297 299 298 300 304 303 292 291 292 290 288 288 290 288 288 287 286 284
86 68 38 7 344 321 311 310 302 298 297 295 292 286 287 300 304 305 306 306 303 298 297 297 300 303 305 308 307 305 303 302 292 285 286 286 285 282 282 282 282 281 280
67 38 14 350 338 332 324 326 326 305 291 291 297 294 293 297 302 311 311 307 304 303 305 304 306 304 303 303 304 303 304 303 301 293 288 294 288 285 282 276 279 280 279
46 10 348 338 325 317 327 328 324 322 299 292 293 296 304 307 312 298 298 303 304 305 306 304 300 298 299 302 303 303 302 300 298 301 301 296 292 288 286 282 284 282 281
20 347 329 325 319 319 331 327 323 327 298 287 286 288 292 295 300 306 305 309 304 300 299 299 291 293 297 299 299 301 300 299 295 292 290 293 295 292 291 284 284 281 280
355 328 318 321 318 316 328 326 326 306 295 291 290 291 301 301 305 313 317 312 308 306 309 306 305 305 306 307 307 306 305 304 302 302 295 286 292 298 293 286 280 281 280
332 327 322 317 311 306 320 327 325 302 302 302 297 291 307 313 313 319 320 315 314 311 311 313 312 308 303 300 305 304 301 300 301 302 289 286 297 308 302 276 269 279 281
Height
1513 1514 1514 1515 1514 1514 1514 1513 1512 1511 1509 1508 1507 1505 1503 1502 1500 1498 1497 1495 1494 1493 1492 1490 1489 1488 1487 1486 1485 1483 1482 1481 1480 1479 1478 1477 1476 1475 1475 1474 1474 1473 1473
1512 1513 1513 1513 1513 1512 1512 1511 1509 1508 1507 1505 1504 1502 1500 1498 1496 1494 1493 1491 1490 1489 1488 1486 1485 1484 1483 1482 1480 1479 1477 1476 1475 1474 1473 1472 1470 1470 1469 1468 1468 1467 1467
1511 1511 1511 1511 1511 1510 1509 1508 1507 1505 1503 1502 1500 1498 1496 1494 1492 1490 1489 1487 1486 1485 1484 1483 1482 1480 1479 1477 1476 1474 1472 1470 1469 1468 1466 1465 1464 1463 1462 1461 1460 1460 1460
1508 1509 1509 1509 1509 1508 1507 1506 1504 1502 1500 1498 1496 1494 1492 1490 1488 1486 1485 1484 1483 1482 1481 1480 1478 1476 1474 1472 1470 1468 1466 1464 1462 1460 1459 1457 1456 1455 1453 1453 1452 1451 1451
1506 1507 1507 1507 1507 1506 1505 1503 1501 1498 1496 1494 1492 1490 1488 1486 1484 1483 1482 1481 1480 1479 1478 1476 1474 1471 1469 1466 1463 1461 1459 1456 1454 1452 1450 1449 1447 1446 1444 1443 1443 1442 1442
1504 1505 1505 1505 1505 1504 1502 1500 1498 1495 1492 1490 1488 1486 1484 1482 1481 1480 1479 1479 1477 1476 1474 1472 1469 1466 1463 1460 1457 1454 1451 1449 1447 1445 1443 1441 1439 1437 1436 1434 1434 1433 1433
1501 1503 1503 1503 1503 1501 1499 1497 1495 1492 1489 1487 1484 1482 1481 1480 1479 1478 1477 1476 1474 1472 1469 1467 1464 1461 1457 1454 1450 1447 1444 1441 1439 1437 1435 1433 1431 1429 1427 1426 1424 1424 1423
1500 1501 1501 1501 1500 1498 1496 1494 1492 1490 1487 1484 1482 1479 1477 1476 1475 1475 1474 1472 1469 1466 1463 1460 1457 1454 1450 1446 1443 1440 1436 1433 1431 1429 1427 1425 1422 1420 1418 1417 1415 1414 1413
1498 1499 1499 1498 1497 1496 1494 1491 1489 1488 1486 1484 1482 1481 1479 1475 1471 1466 1466 1464 1461 1458 1456 1452 1450 1447 1443 1439 1435 1432 1428 1425 1423 1421 1419 1416 1414 1412 1410 1408 1406 1405 1403
1495 1496 1496 1496 1495 1493 1491 1489 1487 1486 1484 1483 1481 1480 1479 1476 1470 1461 1457 1457 1454 1450 1448 1445 1442 1439 1436 1432 1428 1424 1421 1418 1415 1413 1410 1407 1405 1403 1400 1398 1396 1394 1393
1493 1494 1494 1493 1492 1491 1489 1488 1486 1484 1482 1480 1478 1476 1474 1472 1468 1462 1452 1446 1443 1442 1440 1437 1434 1431 1428 1424 1420 1416 1413 1410 1407 1404 1401 1398 1395 1392 1390 1387 1385 1383 1381
1491 1492 1492 1491 1490 1488 1487 1486 1484 1482 1480 1478 1476 1473 1471 1468 1464 1460 1450 1441 1435 1431 1430 1428 1427 1424 1421 1417 1413 1408 1404 1400 1397 1394 1391 1388 1385 1382 1379 1376 1373 1371 1369
1489 1490 1489 1488 1487 1486 1485 1483 1482 1480 1478 1475 1473 1470 1467 1464 1461 1457 1450 1439 1429 1422 1419 1417 1417 1415 1412 1409 1404 1400 1395 1392 1388 1384 1380 1377 1374 1370 1367 1364 1361 1358 1356
1487 1487 1487 1486 1485 1484 1482 1481 1479 1477 1474 1472 1469 1466 1463 1460 1457 1453 1448 1439 1426 1415 1413 1410 1407 1405 1403 1400 1396 1392 1387 1383 1378 1374 1370 1366 1362 1358 1355 1352 1349 1346 1344
1485 1485 1485 1483 1482 1481 1480 1478 1476 1474 1471 1468 1465 1462 1459 1455 1452 1448 1444 1440 1433 1417 1403 1400 1399 1397 1395 1391 1387 1384 1379 1374 1370 1365 1360 1356 1351 1347 1343 1340 1336 1333 1331
1483 1482 1482 1481 1480 1478 1477 1475 1472 1470 1467 1464 1460 1457 1453 1449 1446 1442 1438 1435 1430 1421 1406 1394 1392 1388 1385 1383 1380 1376 1370 1365 1360 1355 1350 1345 1340 1336 1331 1327 1324 1320 1317
1480 1480 1479 1478 1477 1475 1473 1471 1468 1465 1462 1459 1455 1451 1447 1443 1439 1435 1431 1427 1422 1416 1404 1390 1386 1382 1377 1373 1368 1364 1360 1355 1349 1344 1340 1334 1329 1324 1319 1315 1311 1307 1304
1477 1477 1476 1475 1474 1472 1470 1467 1464 1460 1457 1453 1449 1444 1440 1436 1432 1428 1423 1418 1414 1409 1401 1389 1379 1374 1369 1365 1359 1354 1350 1346 1340 1334 1329 1323 1317 1312 1307 1302 1298 1294 1291
1474 1474 1473 1472 1470 1468 1465 1462 1459 1455 1451 1447 1442 1438 1434 1429 1424 1420 1415 1411 1406 1401 1396 1387 1376 1369 1362 1357 1351 1345 1340 1334 1329 1323 1317 1311 1306 1300 1295 1290 1286 1282 1278
1472 1471 1470 1468 1466 1464 1461 1457 1453 1449 1445 1441 1437 1433 1428 1423 1418 1413 1408 1404 1399 1393 1387 1380 1371 1363 1357 1351 1345 1337 1328 1322 1317 1312 1306 1300 1295 1289 1282 1277 1272 1268 1264
1469 1468 1467 1465 1462 1460 1456 1452 1447 1444 1439 1435 1431 1427 1422 1417 1413 1408 1404 1398 1392 1386 1379 1372 1364 1357 1350 1344 1337 1330 1321 1313 1305 1302 1294 1287 1282 1274 1268 1262 1257 1253 1249
1467 1465 1464 1461 1458 1455 1451 1447 1443 1438 1434 1429 1424 1420 1415 1411 1406 1402 1397 1391 1387 1381 1373 1366 1358 1351 1343 1337 1330 1323 1315 1306 1294 1291 1286 1276 1272 1263 1256 1250 1245 1240 1237
1464 1462 1460 1457 1454 1450 1446 1442 1438 1433 1428 1424 1419 1414 1409 1404 1400 1393 1387 1383 1378 1373 1369 1362 1352 1344 1337 1331 1324 1316 1309 1301 1291 1284 1278 1266 1260 1252 1245 1238 1233 1228 1224
1461 1459 1456 1453 1449 1445 1441 1436 1432 1427 1422 1418 1414 1409 1403 1397 1392 1386 1381 1375 1369 1364 1359 1352 1346 1339 1332 1325 1319 1312 1303 1293 1283 1277 1273 1261 1250 1242 1233 1225 1219 1214 1210
1458 1455 1452 1448 1444 1440 1435 1431 1426 1421 1416 1412 1408 1403 1398 1392 1386 1381 1375 1368 1360 1354 1349 1344 1339 1332 1325 1318 1312 1305 1296 1288 1276 1267 1264 1255 1243 1233 1221 1212 1206 1202 1197
1454 1451 1448 1444 1439 1434 1430 1425 1421 1416 1411 1406 1401 1397 1392 1387 1381 1375 1369 1361 1353 1346 1341 1334 1328 1323 1316 1310 1305 1299 1291 1283 1273 1261 1254 1249 1238 1230 1212 1199 1196 1191 1184